Location: Boiro
(42.6475°N, 8.8834°W)
Time: 05:34:25
(UTC+01:00)

Vanguard 1 - Pass Details

Date: 03 December 2021
Orbit: 652 x 3830 km, 34.2° (Epoch: 21 January)

Event Time Altitude Azimuth Distance (km) Brightness Sun altitude
Rises 01:02:36 0° 227° (SW) 7,111 - -68.9°
Reaches altitude 10° 01:07:08 10° 222° (SW) 6,384 - -69.1°
Maximum altitude 01:28:09 52° 154° (SSE) 4,378 - -69.4°
Exits shadow 01:44:03 20° 92° (E) 5,523 13.7 -69.1°
Drops below altitude 10° 01:48:08 10° 86° (E) 6,127 14.1 -68.9°
Sets 01:52:19 0° 82° (E) 6,826 14.5 -68.7°
